Weather History for Jackson, WY

Change the Weather History Date:

Saturday, April 6, 2013

  Actual Average Record
Temperature  
Mean Temperature 36 °F -  
Max Temperature 44 °F 48 °F 63 °F (1960)
Min Temperature 28 °F 20 °F -7 °F (1983)
Degree Days  
Heating Degree Days 29    
Moisture  
Dew Point 32 °F    
Average Humidity 91    
Maximum Humidity 100    
Minimum Humidity 57    
Precipitation  
Precipitation 0.00 in - - ()
Sea Level Pressure  
Sea Level Pressure 29.97 in    
Wind  
Wind Speed 4 mph (SSW)    
Max Wind Speed 16 mph    
Max Gust Speed 24 mph    
Visibility 9 miles    
Events Rain , Snow    
Averages and records for this station are not official NWS values.
T = Trace of Precipitation, MM = Missing Value Source: NWS Daily Summary

Daily Weather History Graph

Daily Weather History Graph

Search for Another Location

Airport:

Trip Planner

Search our weather history database for the weather conditions in past years. The results will help you decide how hot, cold, wet, or windy it might be!

Date:

Astronomy

Apr. 06, 2013 Rise Set
Actual Time 6:55 AM MDT 7:56 PM MDT
Civil Twilight 6:25 AM MDT 8:25 PM MDT
Nautical Twilight 5:51 AM MDT 9:00 PM MDT
Astronomical Twilight 5:14 AM MDT 9:37 PM MDT
Moon 4:47 AM MDT (4/6) 4:22 PM MDT (4/6)
Length of Visible Light 13h 59m
Length of Day
13h 00m
Waning Crescent, 14% of the Moon is Illuminated
Apr 6
Waning Crescent
Apr 10
New
Apr 18
First Quarter
Apr 25
Full
May 2
Last Quarter

Hourly Weather History & Observations

Time (MDT) Temp. Windchill Dew Point Humidity Pressure Visibility Wind Dir Wind Speed Gust Speed Precip Events Conditions
12:15 AM 33.8 °F - 32.0 °F 93% 30.01 in - Calm Calm - N/A   Overcast
12:35 AM 33.8 °F 30.8 °F 30.2 °F 87% 30.00 in - NW 3.5 mph - N/A   Unknown
12:55 AM 32.0 °F - 30.2 °F 93% 30.00 in - Calm Calm - N/A   Unknown
1:15 AM 32.0 °F 28.7 °F 30.2 °F 93% 30.00 in - WNW 3.5 mph - N/A   Unknown
1:35 AM 33.8 °F 30.8 °F 30.2 °F 87% 29.99 in - SSW 3.5 mph - N/A   Unknown
1:55 AM 32.0 °F 27.5 °F 28.4 °F 87% 29.99 in 10.0 mi WSW 4.6 mph - N/A   Mostly Cloudy
2:15 AM 30.2 °F - 30.2 °F 100% 29.98 in 10.0 mi Calm Calm - N/A   Mostly Cloudy
2:35 AM 32.0 °F 27.5 °F 30.2 °F 93% 29.98 in - SSW 4.6 mph - N/A   Unknown
3:35 AM 28.4 °F - 26.6 °F 93% 29.97 in 10.0 mi Calm Calm - N/A   Clear
3:55 AM 30.2 °F - 30.2 °F 100% 29.97 in 10.0 mi Calm Calm - N/A   Clear
4:15 AM 30.2 °F 23.4 °F 28.4 °F 93% 29.98 in 10.0 mi East 6.9 mph - N/A   Clear
4:35 AM 30.2 °F - 28.4 °F 93% 29.98 in 10.0 mi Calm Calm - N/A   Clear
4:55 AM 28.4 °F - 28.4 °F 100% 29.98 in 10.0 mi Calm Calm - N/A   Clear
5:15 AM 28.4 °F - 26.6 °F 93% 29.98 in 10.0 mi Calm Calm - N/A   Clear
5:35 AM 28.4 °F 21.2 °F 28.4 °F 100% 29.98 in 10.0 mi East 6.9 mph - N/A   Partly Cloudy
6:15 AM 30.2 °F 26.7 °F 28.4 °F 93% 29.98 in 10.0 mi SSE 3.5 mph - N/A   Clear
6:35 AM 28.4 °F 24.6 °F 28.4 °F 100% 29.99 in 10.0 mi South 3.5 mph - N/A   Partly Cloudy
6:52 AM 28.4 °F - 28.4 °F 100% 29.99 in 10.0 mi Calm Calm - N/A   Scattered Clouds
7:51 AM 30.2 °F - 28.4 °F 93% 30.00 in 10.0 mi Calm Calm - N/A   Scattered Clouds
8:51 AM 30.2 °F - 28.4 °F 93% 30.00 in 10.0 mi Calm Calm - N/A   Scattered Clouds
9:34 AM 33.8 °F 28.6 °F 30.2 °F 87% 30.00 in 1.5 mi SSW 5.8 mph - N/A Snow Light Snow
9:57 AM 32.0 °F 26.4 °F 32.0 °F 100% 30.00 in 3.0 mi SW 5.8 mph - N/A Snow Light Snow
10:52 AM 35.6 °F 31.7 °F 33.8 °F 93% 30.00 in 6.0 mi SW 4.6 mph - N/A Snow Light Snow
11:54 AM 37.4 °F 30.8 °F 37.4 °F 100% 29.99 in 7.0 mi SW 9.2 mph - N/A   Overcast
12:53 PM 41.0 °F 33.5 °F 37.4 °F 87% 29.97 in 7.0 mi South 13.8 mph - N/A   Overcast
1:57 PM 41.0 °F 33.1 °F 37.4 °F 87% 29.95 in 7.0 mi South 15.0 mph 21.9 mph N/A Rain Light Rain
2:51 PM 42.8 °F 36.6 °F 35.6 °F 76% 29.94 in 10.0 mi South 11.5 mph - N/A   Overcast
3:51 PM 44.6 °F 39.2 °F 33.8 °F 66% 29.93 in 10.0 mi SSW 10.4 mph - N/A   Overcast
4:52 PM 42.8 °F 35.8 °F 33.8 °F 70% 29.93 in 10.0 mi South 13.8 mph 24.2 mph N/A   Mostly Cloudy
5:52 PM 42.8 °F 35.1 °F 33.8 °F 70% 29.93 in 10.0 mi SSE 16.1 mph - N/A   Mostly Cloudy
6:53 PM 44.6 °F 39.2 °F 30.2 °F 57% 29.92 in 10.0 mi South 10.4 mph - N/A   Mostly Cloudy
7:52 PM 35.6 °F 28.6 °F 33.8 °F 93% 29.94 in 10.0 mi ESE 9.2 mph - N/A   Mostly Cloudy
8:51 PM 35.6 °F - 33.8 °F 93% 29.94 in 10.0 mi Calm Calm - N/A   Mostly Cloudy
9:15 PM 35.6 °F - 35.6 °F 100% 29.94 in - Calm Calm - N/A   Unknown
9:55 PM 35.6 °F - 35.6 °F 100% 29.94 in 10.0 mi Calm Calm - N/A   Overcast
10:15 PM 35.6 °F - 35.6 °F 100% 29.94 in 10.0 mi Calm Calm - N/A   Overcast
10:35 PM 35.6 °F 31.7 °F 35.6 °F 100% 29.93 in 10.0 mi South 4.6 mph - N/A   Overcast
11:15 PM 35.6 °F 28.6 °F 33.8 °F 93% 29.92 in 10.0 mi SSW 9.2 mph - N/A   Scattered Clouds
11:35 PM 35.6 °F 29.2 °F 33.8 °F 93% 29.92 in 10.0 mi SW 8.1 mph - N/A   Mostly Cloudy
11:55 PM 35.6 °F 30.7 °F 33.8 °F 93% 29.92 in 10.0 mi SSW 5.8 mph - N/A   Overcast